"Pseudo-MPEC" for SO000AS

Created 2026 Aug 15 14:35:30 UT using Find_Orb

Click here for an explanation of pseudo-MPECs

 
 Astrometry: 
     SO000AS*0B2026 08 15.49112321 49 54.408-01 32 25.01   ~8FCZ 16.76VVNEOCPE54
     SO000AS 0B2026 08 15.49269621 50 02.438-01 30 27.54   ~8FCZ 16.77VVNEOCPE54
     SO000AS 0B2026 08 15.49415121 50 09.828-01 28 39.04   ~8FCZ 16.74VVNEOCPE54
     SO000AS 0B2026 08 15.49566721 50 17.544-01 26 45.60   ~8FCo 16.92VVNEOCPE54
     SO000AS 0B2026 08 15.49724721 50 25.512-01 24 48.10   ~8FCo 16.75VVNEOCPE54
     SO000AS 0B2026 08 15.49910121 50 34.841-01 22 29.64   ~8FCo 16.77VVNEOCPE54
     SO000AS 0B2026 08 15.50070721 50 42.912-01 20 29.98   ~8FCo 16.79VVNEOCPE54
     SO000AS 0B2026 08 15.50219821 50 50.369-01 18 38.56   ~8FD5 16.84VVNEOCPE54
     SO000AS 0B2026 08 15.50379321 50 58.337-01 16 39.47   ~8FD5 16.77VVNEOCPE54
     SO000AS 0B2026 08 15.50528221 51 05.750-01 14 48.55   ~8FD5 16.77VVNEOCPE54

Station data:
(E54) TransAstra at Springbrook  (S31.281736 E149.081470)  Australia/NSW.

Orbital elements:  SO000AS
   Perigee 2026 Aug 15.173646 +/- 21.8 TT =  4:10:03.0 (JD 2461267.673646)
Epoch 2026 Aug 15.0 TT = JDT 2461267.5                           AutoNEOCP
q368135.4309 +/- 1.45e+6            (J2000 equator)
H   29.03 G 0.15                    Peri.  346.282278 +/- 23
                                    Node   329.428516 +/- 1.1
e   4.69362957 +/- 0.0961           Incl.   39.433090 +/- 1.2
From 10 observations 2026 Aug. 15 (20.4 min); mean residual 0".47
Residuals in arcseconds: 
260815 E54  1.1-  .05-    260815 E54  .74+  .14-    260815 E54  .35-  .13+    
260815 E54  .32-  .03+    260815 E54  .58+  .01-    260815 E54  .94-  .01-    
260815 E54  .03+  .05-    260815 E54  .50+  .17-    
260815 E54  .82+  .26+    260815 E54  .07+  .02+    

Ephemerides (geocentric):
Date (UTC) HH   RA             Dec           delta  r     elong  mag " sig PA
---- --------  ------------   ------------  ------ ------ -----  --- --------
2026 08 15 15  22 01 06.071   +00 41 42.13  378577 1.0152 164.3 16.9 1356  14
2026 08 15 16  22 05 08.882   +01 31 33.48  380552 1.0152 163.2 17.0 1649  57
2026 08 15 17  22 09 09.271   +02 20 50.93  382688 1.0152 162.1 17.0 2585  87
2026 08 15 18  22 13 07.175   +03 09 31.72  384983 1.0152 160.9 17.1 3938  99
2026 08 15 19  22 17 02.531   +03 57 33.31  387433 1.0152 159.8 17.1 5651 105
2026 08 15 20  22 20 55.286   +04 44 53.38  390036 1.0152 158.7 17.2 7782 108
2026 08 15 21  22 24 45.391   +05 31 29.85  392788 1.0152 157.6 17.2 174' 111
2026 08 15 22  22 28 32.802   +06 17 20.86  395686 1.0151 156.5 17.3 230' 113
2026 08 15 23  22 32 17.480   +07 02 24.77  398727 1.0151 155.4 17.3 304' 114
2026 08 16 00  22 35 59.393   +07 46 40.16  401906 1.0151 154.3 17.4 406' 114
2026 08 16 01  22 39 38.510   +08 30 05.83  405221 1.0151 153.3 17.4 554' 114
2026 08 16 02  22 43 14.810   +09 12 40.78  408667 1.0151 152.2 17.5 791' 111
2026 08 16 03  22 46 48.271   +09 54 24.20  412242 1.0151 151.2 17.5  20d 106
2026 08 16 04  22 50 18.880   +10 35 15.48  415942 1.0151 150.1 17.6  30d  96
2026 08 16 05  22 53 46.625   +11 15 14.18  419763 1.0151 149.1 17.6  39d  86
2026 08 16 06  22 57 11.500   +11 54 20.02  423701 1.0151 148.2 17.7  39d 100
2026 08 16 07  23 00 33.500   +12 32 32.88  427754 1.0151 147.2 17.7  36d 105
2026 08 16 08  23 03 52.627   +13 09 52.78  431917 1.0150 146.2 17.8  33d 108
2026 08 16 09  23 07 08.885   +13 46 19.89  436188 1.0150 145.3 17.8  32d 110
2026 08 16 10  23 10 22.279   +14 21 54.46  440562 1.0150 144.4 17.9  31d 112
2026 08 16 11  23 13 32.820   +14 56 36.90  445037 1.0150 143.5 17.9  31d 113
2026 08 16 12  23 16 40.520   +15 30 27.68  449609 1.0150 142.6 18.0  31d 113
2026 08 16 13  23 19 45.395   +16 03 27.37  454275 1.0150 141.7 18.0  32d 113
2026 08 16 14  23 22 47.461   +16 35 36.62  459032 1.0150 140.9 18.1  33d 112
2026 08 16 15  23 25 46.739   +17 06 56.16  463877 1.0150 140.1 18.1  37d 109
2026 08 16 16  23 28 43.250   +17 37 26.77  468807 1.0150 139.3 18.1  42d 102
2026 08 16 17  23 31 37.018   +18 07 09.28  473819 1.0149 138.5 18.2  49d  93
2026 08 16 18  23 34 28.068   +18 36 04.57  478910 1.0149 137.7 18.2  47d 109
2026 08 16 19  23 37 16.427   +19 04 13.55  484078 1.0149 136.9 18.3  46d 109
2026 08 16 20  23 40 02.123   +19 31 37.17  489319 1.0149 136.2 18.3  47d 105
2026 08 16 21  23 42 45.187   +19 58 16.39  494632 1.0149 135.5 18.4  50d  98
2026 08 16 22  23 45 25.647   +20 24 12.22  500013 1.0149 134.7 18.4  47d 112
2026 08 16 23  23 48 03.537   +20 49 25.64  505461 1.0149 134.0 18.5  43d 116
2026 08 17 00  23 50 38.889   +21 13 57.68  510972 1.0149 133.4 18.5  40d 118
2026 08 17 01  23 53 11.736   +21 37 49.34  516545 1.0149 132.7 18.5  39d 120
2026 08 17 02  23 55 42.112   +22 01 01.65  522178 1.0148 132.1 18.6  37d 120
2026 08 17 03  23 58 10.052   +22 23 35.61  527868 1.0148 131.4 18.6  36d 121
2026 08 17 04  00 00 35.591   +22 45 32.25  533614 1.0148 130.8 18.7  35d 121
2026 08 17 05  00 02 58.764   +23 06 52.55  539413 1.0148 130.2 18.7  35d 121
2026 08 17 06  00 05 19.608   +23 27 37.51  545263 1.0148 129.6 18.7  34d 121
2026 08 17 07  00 07 38.157   +23 47 48.11  551163 1.0148 129.0 18.8  34d 121
2026 08 17 08  00 09 54.449   +24 07 25.32  557112 1.0148 128.5 18.8  34d 121
2026 08 17 09  00 12 08.519   +24 26 30.07  563106 1.0148 127.9 18.9  33d 121
2026 08 17 10  00 14 20.404   +24 45 03.31  569145 1.0148 127.4 18.9  33d 121
2026 08 17 11  00 16 30.140   +25 03 05.94  575226 1.0147 126.8 18.9  33d 121
2026 08 17 12  00 18 37.763   +25 20 38.87  581350 1.0147 126.3 19.0  33d 120
2026 08 17 13  00 20 43.308   +25 37 42.96  587513 1.0147 125.8 19.0  33d 120
2026 08 17 14  00 22 46.813   +25 54 19.08  593715 1.0147 125.3 19.0  33d 120